Location: Newark
(45.2500°N, 7.5833°E)
Time: 21:31:47
(UTC+00:00)

BEESAT 2 - Pass Details

Date: 29 February 2020
Orbit: 493 x 533 km, 64.9° (Epoch: 09 April)

Event Time Altitude Azimuth Distance (km) Brightness Sun altitude
Rises 18:20:33 0° 327° (NNW) 2,688 ? -12.1°
Reaches altitude 10° 18:22:47 10° 332° (NNW) 1,795 ? -12.5°
Maximum altitude 18:26:45 55° 51° (NE) 645 ? -13.2°
Enters shadow 18:29:30 18° 125° (SE) 1,329 ? -13.7°
